Regional Weather Roundup
Issued by NWS

Home | Current Version | Previous Version | Graphics & Text | Print | Product List | Glossary On
Versions: 1 2 3 4 5 6 7 8 9 10 11 12 13 14 15 16 17 18 19 20 21 22 23 24 25 26 27 28 29 30 31 32 33 34 35 36 37 38 39 40 41 42 43 44 45 46 47 48 49 50
910
ASUS44 KLIX 211901
RWRLA
LOUISIANA WEATHER ROUNDUP
NATIONAL WEATHER SERVICE NEW ORLEANS LA
200 PM CDT TUE OCT 21 2014

NOTE: "FAIR" INDICATES FEW OR NO CLOUDS BELOW 12,000 FEET WITH NO
      SIGNIFICANT WEATHER AND/OR OBSTRUCTIONS TO VISIBILITY.
      SKY/WX - SKY CONDITION AND SIGNIFICANT WEATHER.
      TMP - AIR TEMPERATURE.    DP   - DEWPOINT TEMPERATURE.
      RH  - RELATIVE HUMIDITY.  PRES - PRESSURE.
      HX  - HEAT INDEX.         WCI  - WIND CHILL INDEX.

*  THESE STATIONS ARE NOT NWS OR FAA STATIONS AND ARE NOT UNDER
   NWS QUALITY CONTROL.

LAZ040-048-061>063-065-066-069-212000-
SOUTHEAST LOUISIANA

CITY           SKY/WX    TMP DP  RH WIND       PRES   REMARKS
N.O. AUDUBON     N/A     82  56  40 MISG        N/A
N.O. INTL ARPT SUNNY     78  52  40 NE9       30.01F
N.O. LAKEFRONT SUNNY     78  53  41 NE7       30.01F
N.O. DOWNTOWN* FAIR      79  52  38 E6        30.01F
SLIDELL        SUNNY     80  53  39 NE7       30.00F
BATON ROUGE    SUNNY     80  53  39 VRB6      30.02F
BOOTHVILLE     SUNNY     76  59  55 NE13      30.00F
BELLE CHASSE   MOSUNNY   78  51  38 NE7       30.00F
BOGALUSA*        N/A     82  52  35 NE7       30.03F
NEW ROADS*     FAIR      79  56  44 N8        30.03F
GONZALES*      FAIR      79  55  43 N5        30.00F
HAMMOND*       NOT AVBL
HOUMA*         SUNNY     81  54  39 N12       30.00F
PORT FOURCHON* CLEAR     77  57  50 NE15      30.03F

$$

LAZ041-044-053-054-212000-
SOUTHWEST LOUISIANA

CITY           SKY/WX    TMP DP  RH WIND       PRES   REMARKS
LAKE CHARLES   SUNNY     80  54  40 NE12      30.02F
LAFAYETTE      SUNNY     80  54  40 NE7       30.02F
PATTERSON      SUNNY     81  55  41 NE13      30.02F
SALT POINT       N/A     81  55  40 VRB6      29.98F
NEW IBERIA     SUNNY     82  56  40 NE10      30.01F
CHENAULT AIRPK SUNNY     79  54  41 N5G16     30.03F

$$

LAZ027-028-212000-
CENTRAL LOUISIANA

CITY           SKY/WX    TMP DP  RH WIND       PRES   REMARKS
FORT POLK      NOT AVBL
ALEXANDRIA INT SUNNY     80  60  50 E9        30.02F
ALEXANDRIA     SUNNY     79  61  53 E6        30.04F

$$

LAZ001-002-212000-
NORTHWEST LOUISIANA

CITY           SKY/WX    TMP DP  RH WIND       PRES   REMARKS
SHREVEPORT     MOSUNNY   80  61  52 VRB5      30.06F
BARKSDALE AFB  NOT AVBL
DTN SHREVEPORT SUNNY     78  59  51 VRB3      30.06F

$$

LAZ014-016-212000-
NORTHEAST LOUISIANA

CITY           SKY/WX    TMP DP  RH WIND       PRES   REMARKS
MONROE         SUNNY     79  60  52 CALM      30.06F
TALLULAH       SUNNY     77  56  48 CALM      30.04F

$$




USA.gov is the U.S. government's official web portal to all federal, state and local government web resources and services.